Weather in Cherdaty

Russia / Tomsk District     56°57′01″N   86°56′05″E
temp.,
°C
wind,
m/s
gust,
m/s
humid.,
%
clouds,
%
prec.,
mm/h
press.,
hPa
HPBL,
m
19 january, wed
wed1901:00−13ssw4119454 0.0 1026289
04:00−15ssw3109534 0.0 1026231
07:00−15ssw3119528 0.0 1026237
10:00−15ssw4119476 0.0 1026276
13:00−12ssw4119279 0.0 1026386
16:00−11ssw4109260 0.0 1025383
19:00−13ssw399514 0.0 1026201
22:00−14ssw389635 0.0 1026166
20 january, thu
thu2001:00−16ssw279759 0.0 1027119
04:00−17ssw26975 0.0 102794
07:00−19ssw269818 0.0 102885
10:00−18ssw279788 0.0 1030135
13:00−13sw359131 0.0 1030207
16:00−12sw269558 0.0 1031203
19:00−16sw259858 0.0 103274
22:00−18sw259850 0.0 103483
21 january, fri
fri2101:00−18ssw249989 0.0 103465
04:00−19ssw2399100 0.0 103447
07:00−20s1110058 0.0 103510
10:00−22ssw1110033 0.0 103512
13:00−14ssw129257 0.0 1034128
16:00−13sse11955 0.0 103313
19:00−18nne119956 0.0 10339
22:00−20e1110058 0.0 10339
22 january, sat
sat2201:00−20ene1110048 0.0 103311
04:00−21ene1110038 0.0 10339
07:00−22ene111006 0.0 10349
10:00−22e1110036 0.0 10349
13:00−14sw1287100 0.0 1034114
16:00−13sw1191100 0.0 103437
19:00−16ssw1197100 0.0 103410
22:00−16ssw1197100 0.0 103512
23 january, sun
sun2301:00−17sw1198100 0.0 103525
04:00−16ssw1297100 0.0 103547
07:00−14sw249599 0.0 1035109
10:00−16sw249797 0.0 103589
13:00−12sw2589100 0.0 1035220
16:00−11sw2694100 0.3 1034351
19:00−10wsw3795100 0.9 1034342
22:00−11wsw3796100 0.4 1034259